Location: Bavegemberg
(50.9500°N, 3.8833°E)
Time: 14:34:24
(UTC+00:00)

Lacrosse 5 rocket - Pass Details

Date: 23 May 2024
Orbit: 445 x 572 km, 57.0° (Epoch: 18 June)

Event Time Altitude Azimuth Distance (km) Brightness Sun altitude
Rises 02:58:23 0° 291° (WNW) 2,707 4.6 -6.3°
Reaches altitude 10° 03:01:46 10° 262° (W) 1,778 3.4 -6.0°
Maximum altitude 03:03:29 13° 237° (WSW) 1,603 3.0 -5.8°
Drops below altitude 10° 03:05:11 10° 211° (SSW) 1,738 3.3 -5.6°
Sets 03:08:25 0° 181° (S) 2,582 4.3 -5.2°
